Chignik, AK

9:30 AM AKST on February 27, 2017 (GMT -0900)
Chignik

Weather History for PAJC - November, 2012

Change the Weather History Date:

Thursday, November 22, 2012

  Actual Average Record
Temperature  
Mean Temperature 18 °F -  
Max Temperature 21 °F 37 °F 53 °F (2010)
Min Temperature 15 °F 30 °F 14 °F (2011)
Degree Days  
Heating Degree Days 47    
Moisture  
Dew Point 9 °F    
Average Humidity 65    
Maximum Humidity 80    
Minimum Humidity 49    
Precipitation  
Precipitation 0.00 in - - ()
Sea Level Pressure  
Sea Level Pressure 29.73 in    
Wind  
Wind Speed 17 mph (WSW)    
Max Wind Speed 22 mph    
Max Gust Speed 29 mph    
Visibility 10 miles    
Events      
Averages and records for this station are not official NWS values.
T = Trace of Precipitation, MM = Missing Value Source: NWS Daily Summary

Daily Weather History Graph

Daily Weather History Graph

Search for Another Location

Airport or City:

Trip Planner

Search our weather history database for the weather conditions in past years. The results will help you decide how hot, cold, wet, or windy it might be!

Date:

Astronomy

Nov. 22, 2012 Rise Set
Actual Time 9:27 AM AKST 5:11 PM AKST
Civil Twilight 8:42 AM AKST 5:56 PM AKST
Nautical Twilight 7:55 AM AKST 6:43 PM AKST
Astronomical Twilight 7:10 AM AKST 7:28 PM AKST
Moon 2:53 PM AKST (11/22) 3:02 AM AKST (11/22)
Length of Visible Light 9h 13m
Length of Day
7h 44m
Waxing Gibbous, 72% of the Moon is Illuminated
Nov 22
Waxing Gibbous
Nov 28
Full
Dec 6
Last Quarter
Dec 12
New
Dec 19
First Quarter

Hourly Weather History & Observations

Time (AKST) Temp. Windchill Dew Point Humidity Pressure Visibility Wind Dir Wind Speed Gust Speed Precip Events Conditions
12:16 AM 19.4 °F 3.2 °F 6.8 °F 58% 29.78 in 10.0 mi WSW 20.7 mph 27.6 mph N/A   Clear
12:36 AM 19.4 °F 4.1 °F 5.0 °F 54% 29.78 in 10.0 mi WSW 18.4 mph 28.8 mph N/A   Clear
12:56 AM 19.4 °F 3.2 °F 5.0 °F 54% 29.78 in 10.0 mi West 20.7 mph 27.6 mph N/A   Clear
1:16 AM 19.4 °F 2.8 °F 5.0 °F 54% 29.78 in 10.0 mi West 21.9 mph 27.6 mph N/A   Clear
1:36 AM 19.4 °F 3.6 °F 3.2 °F 49% 29.78 in 10.0 mi WSW 19.6 mph 25.3 mph N/A   Clear
1:56 AM 17.6 °F 2.7 °F 5.0 °F 58% 29.78 in 10.0 mi WSW 16.1 mph 24.2 mph N/A   Clear
2:16 AM 17.6 °F 2.2 °F 5.0 °F 58% 29.78 in 10.0 mi WSW 17.3 mph 25.3 mph N/A   Clear
2:36 AM 17.6 °F 0.9 °F 6.8 °F 63% 29.78 in 10.0 mi WSW 20.7 mph 25.3 mph N/A   Clear
2:56 AM 17.6 °F 0.9 °F 6.8 °F 63% 29.78 in 10.0 mi WSW 20.7 mph 27.6 mph N/A   Clear
3:16 AM 17.6 °F 2.7 °F 6.8 °F 63% 29.78 in 10.0 mi WSW 16.1 mph 24.2 mph N/A   Clear
3:36 AM 17.6 °F 3.2 °F 5.0 °F 58% 29.78 in 10.0 mi WSW 15.0 mph 21.9 mph N/A   Clear
3:56 AM 17.6 °F 2.2 °F 6.8 °F 63% 29.78 in 10.0 mi WSW 17.3 mph 21.9 mph N/A   Clear
4:16 AM 15.8 °F 0.9 °F 5.0 °F 62% 29.78 in 10.0 mi WSW 15.0 mph 21.9 mph N/A   Clear
4:36 AM 15.8 °F -0.2 °F 5.0 °F 62% 29.78 in 10.0 mi WSW 17.3 mph - N/A   Clear
4:56 AM 15.8 °F 0.3 °F 3.2 °F 58% 29.78 in 10.0 mi WSW 16.1 mph 20.7 mph N/A   Clear
5:16 AM 15.8 °F -0.2 °F 3.2 °F 58% 29.77 in 10.0 mi WSW 17.3 mph 21.9 mph N/A   Clear
5:36 AM 15.8 °F 2.1 °F 5.0 °F 62% 29.78 in 10.0 mi WSW 12.7 mph 18.4 mph N/A   Mostly Cloudy
5:56 AM 15.8 °F 0.3 °F 5.0 °F 62% 29.78 in 10.0 mi WSW 16.1 mph 25.3 mph N/A   Overcast
6:16 AM 15.8 °F 0.9 °F 5.0 °F 62% 29.77 in 10.0 mi WSW 15.0 mph - N/A   Overcast
6:36 AM 15.8 °F 0.3 °F 6.8 °F 68% 29.77 in 10.0 mi WSW 16.1 mph 24.2 mph N/A   Overcast
6:56 AM 15.8 °F 0.3 °F 3.2 °F 58% 29.78 in 10.0 mi WSW 16.1 mph 24.2 mph N/A   Overcast
7:16 AM 15.8 °F 0.9 °F 5.0 °F 62% 29.78 in 10.0 mi WSW 15.0 mph 23.0 mph N/A   Overcast
7:36 AM 15.8 °F 0.3 °F 6.8 °F 68% 29.77 in 10.0 mi WSW 16.1 mph 23.0 mph N/A   Overcast
7:56 AM 17.6 °F 1.7 °F 5.0 °F 58% 29.77 in 10.0 mi WSW 18.4 mph 23.0 mph N/A   Overcast
8:16 AM 17.6 °F 1.3 °F 6.8 °F 63% 29.77 in 10.0 mi SW 19.6 mph - N/A   Mostly Cloudy
8:36 AM 17.6 °F 3.7 °F 6.8 °F 63% 29.77 in 10.0 mi WSW 13.8 mph 24.2 mph N/A   Scattered Clouds
8:56 AM 17.6 °F 3.7 °F 8.6 °F 68% 29.77 in 10.0 mi WSW 13.8 mph - N/A   Overcast
9:16 AM 17.6 °F 3.7 °F 6.8 °F 63% 29.77 in 10.0 mi WSW 13.8 mph - N/A   Overcast
9:36 AM 17.6 °F 3.7 °F 6.8 °F 63% 29.77 in 10.0 mi WSW 13.8 mph 19.6 mph N/A   Overcast
9:56 AM 17.6 °F 4.3 °F 6.8 °F 63% 29.77 in 10.0 mi WSW 12.7 mph 18.4 mph N/A   Overcast
10:16 AM 17.6 °F 2.7 °F 8.6 °F 68% 29.76 in 10.0 mi WSW 16.1 mph 20.7 mph N/A   Overcast
10:36 AM 19.4 °F 4.5 °F 8.6 °F 63% 29.76 in 10.0 mi SW 17.3 mph 24.2 mph N/A   Overcast
10:56 AM 17.6 °F 3.2 °F 8.6 °F 68% 29.76 in 10.0 mi WSW 15.0 mph 23.0 mph N/A   Scattered Clouds
11:16 AM 19.4 °F 6.0 °F 8.6 °F 63% 29.75 in 10.0 mi WSW 13.8 mph 23.0 mph N/A   Mostly Cloudy
11:36 AM 19.4 °F 6.6 °F 10.4 °F 68% 29.75 in 10.0 mi WSW 12.7 mph 21.9 mph N/A   Overcast
11:56 AM 19.4 °F 7.2 °F 8.6 °F 63% 29.75 in 10.0 mi West 11.5 mph 19.6 mph N/A   Mostly Cloudy
12:16 PM 19.4 °F 6.0 °F 10.4 °F 68% 29.75 in 10.0 mi West 13.8 mph 24.2 mph N/A   Partly Cloudy
12:36 PM 19.4 °F 6.6 °F 8.6 °F 63% 29.73 in 10.0 mi West 12.7 mph 19.6 mph N/A   Clear
12:56 PM 19.4 °F 4.5 °F 10.4 °F 68% 29.73 in 10.0 mi WSW 17.3 mph 25.3 mph N/A   Clear
1:16 PM 21.2 °F 7.3 °F 10.4 °F 63% 29.73 in 10.0 mi WSW 16.1 mph 25.3 mph N/A   Clear
1:36 PM 21.2 °F 6.4 °F 12.2 °F 68% 29.73 in 10.0 mi WSW 18.4 mph 25.3 mph N/A   Clear
1:56 PM 21.2 °F 7.3 °F 10.4 °F 63% 29.72 in 10.0 mi West 16.1 mph 24.2 mph N/A   Clear
2:16 PM 21.2 °F 8.3 °F 10.4 °F 63% 29.72 in 10.0 mi WSW 13.8 mph 20.7 mph N/A   Clear
2:36 PM 21.2 °F 6.8 °F 12.2 °F 68% 29.71 in 10.0 mi WSW 17.3 mph 25.3 mph N/A   Clear
2:56 PM 21.2 °F 7.8 °F 12.2 °F 68% 29.71 in 10.0 mi WSW 15.0 mph 23.0 mph N/A   Clear
3:16 PM 21.2 °F 7.3 °F 12.2 °F 68% 29.70 in 10.0 mi WSW 16.1 mph 20.7 mph N/A   Clear
3:36 PM 21.2 °F 6.8 °F 12.2 °F 68% 29.70 in 10.0 mi WSW 17.3 mph 27.6 mph N/A   Clear
3:56 PM 21.2 °F 7.3 °F 12.2 °F 68% 29.69 in 10.0 mi WSW 16.1 mph 27.6 mph N/A   Clear
4:16 PM 21.2 °F 8.9 °F 12.2 °F 68% 29.69 in 10.0 mi West 12.7 mph 23.0 mph N/A   Clear
4:36 PM 21.2 °F 9.5 °F 14.0 °F 74% 29.69 in 10.0 mi WSW 11.5 mph - N/A   Clear
4:56 PM 21.2 °F 7.3 °F 12.2 °F 68% 29.69 in 10.0 mi WSW 16.1 mph 21.9 mph N/A   Clear
5:16 PM 21.2 °F 7.8 °F 14.0 °F 74% 29.69 in 10.0 mi WSW 15.0 mph 19.6 mph N/A   Clear
5:36 PM 21.2 °F 6.8 °F 12.2 °F 68% 29.69 in 10.0 mi WSW 17.3 mph 24.2 mph N/A   Clear
5:56 PM 21.2 °F 7.3 °F 12.2 °F 68% 29.69 in 10.0 mi WSW 16.1 mph - N/A   Clear
6:16 PM 21.2 °F 9.5 °F 12.2 °F 68% 29.69 in 10.0 mi WSW 11.5 mph 18.4 mph N/A   Clear
6:36 PM 21.2 °F 8.3 °F 14.0 °F 74% 29.68 in 10.0 mi WSW 13.8 mph 19.6 mph N/A   Clear
6:56 PM 21.2 °F 7.8 °F 12.2 °F 68% 29.68 in 10.0 mi West 15.0 mph 21.9 mph N/A   Clear
7:16 PM 21.2 °F 8.9 °F 12.2 °F 68% 29.68 in 10.0 mi West 12.7 mph 17.3 mph N/A   Clear
7:36 PM 21.2 °F 8.3 °F 12.2 °F 68% 29.68 in 10.0 mi West 13.8 mph 24.2 mph N/A   Clear
7:56 PM 21.2 °F 6.4 °F 15.8 °F 80% 29.68 in 10.0 mi WSW 18.4 mph - N/A   Clear
8:16 PM 21.2 °F 6.8 °F 14.0 °F 74% 29.68 in 10.0 mi WSW 17.3 mph 28.8 mph N/A   Clear
8:36 PM 21.2 °F 8.9 °F 14.0 °F 74% 29.68 in 10.0 mi West 12.7 mph 23.0 mph N/A   Partly Cloudy
8:56 PM 21.2 °F 6.8 °F 14.0 °F 74% 29.68 in 10.0 mi WSW 17.3 mph 21.9 mph N/A   Partly Cloudy
9:16 PM 21.2 °F 8.3 °F 12.2 °F 68% 29.68 in 10.0 mi WSW 13.8 mph 19.6 mph N/A   Clear
9:36 PM 21.2 °F 8.3 °F 12.2 °F 68% 29.68 in 10.0 mi WSW 13.8 mph - N/A   Clear
9:56 PM 21.2 °F 7.3 °F 12.2 °F 68% 29.67 in 10.0 mi WSW 16.1 mph - N/A   Clear
10:16 PM 21.2 °F 10.1 °F 12.2 °F 68% 29.68 in 10.0 mi West 10.4 mph - N/A   Clear
10:36 PM 21.2 °F 8.9 °F 12.2 °F 68% 29.67 in 10.0 mi WSW 12.7 mph - N/A   Clear
10:56 PM 21.2 °F 7.8 °F 10.4 °F 63% 29.66 in 10.0 mi WSW 15.0 mph 18.4 mph N/A   Clear
11:16 PM 21.2 °F 8.3 °F 12.2 °F 68% 29.66 in 10.0 mi WSW 13.8 mph 19.6 mph N/A   Clear
11:36 PM 21.2 °F 7.3 °F 12.2 °F 68% 29.65 in 10.0 mi WSW 16.1 mph - N/A   Clear
11:56 PM 21.2 °F 7.3 °F 14.0 °F 74% 29.65 in 10.0 mi WSW 16.1 mph 20.7 mph N/A   Clear